EA3FQO-2 Weather Reports


time (UTC)temp
C
wind
direction
speed
KPH
gust
KPH
rain 1hr
cm
rain 24hr
cm
rain mn
cm
humidity
%
barometer
mb
20260510063006 8 0 0.0 0.0 0.00 1.96 0.00 99 1006.7
20260510061506 7 0 0.0 0.0 0.00 1.96 0.00 99 1006.8
20260510060006 7 0 0.0 0.0 0.00 1.96 0.00 99 1006.7
20260510054505 6 0 0.0 0.0 0.00 1.96 0.00 99 1006.8
20260510053006 6 0 0.0 0.0 0.00 1.96 0.00 99 1006.6
20260510050006 6 0 0.0 0.0 0.00 1.96 0.00 99 1006.6
20260510044506 6 0 0.0 0.0 0.00 1.96 0.00 99 1006.4
20260510043005 6 0 0.0 0.0 0.00 1.96 0.00 99 1006.6
20260510041505 6 0 0.0 0.0 0.00 1.96 0.00 99 1006.5
20260510040006 6 0 0.0 0.0 0.00 1.96 0.00 99 1006.4
20260510034506 6 0 0.0 0.0 0.00 1.96 0.00 99 1006.6
20260510033005 6 0 0.0 0.0 0.00 1.96 0.00 99 1006.5
20260510031505 6 0 0.0 0.0 0.00 1.96 0.00 99 1006.7
20260510030005 7 0 0.0 0.0 0.00 1.96 0.00 99 1006.8
20260510023006 6 0 0.0 0.0 0.00 1.96 0.00 99 1007.1
20260510020005 7 0 0.0 0.0 0.00 1.96 0.00 99 1006.9
20260510014505 7 0 0.0 0.0 0.00 1.96 0.00 99 1006.8
20260510013006 7 0 0.0 0.0 0.00 1.96 0.00 99 1007.2
20260510011505 7 0 0.0 0.0 0.00 1.96 0.00 99 1007.4
20260510010005 7 0 0.0 0.0 0.00 1.96 0.00 99 1007.3
20260510004505 8 0 0.0 0.0 0.00 1.96 0.00 99 1007.6
20260510003005 8 0 0.0 0.0 0.00 1.96 0.00 99 1008.0
20260510000005 9 0 0.0 0.0 0.00 1.96 0.00 99 1008.3
20260509234505 10 0 0.0 0.0 0.00 1.96 0.00 99 1008.6
20260509231505 10 0 0.0 0.0 0.00 1.96 0.00 99 1009.2
20260509230005 10 0 0.0 0.0 0.00 1.96 0.00 99 1009.3
20260509224505 10 0 0.0 0.0 0.00 1.96 0.00 99 1009.5
20260509223005 10 0 0.0 0.0 0.00 1.96 0.00 99 1009.4
20260509221505 10 0 0.0 0.0 0.00 1.96 0.00 99 1009.3
20260509220006 10 0 0.0 0.0 0.03 1.96 0.00 99 1009.3
20260509214505 10 0 0.0 0.0 0.03 1.96 1.96 99 1009.2
20260509211505 10 0 0.0 0.0 0.03 1.96 1.96 99 1009.0
20260509204505 10 0 0.0 0.0 0.03 1.91 1.91 99 1008.9
20260509203006 10 0 0.0 0.0 0.03 1.91 1.91 99 1008.5
20260509201505 10 0 0.0 0.0 0.08 1.91 1.91 99 1008.2
20260509200005 10 0 0.0 0.0 0.03 1.88 1.88 99 1008.1
20260509194505 10 0 0.0 0.0 0.08 1.88 1.88 99 1008.1
20260509193005 10 0 0.0 0.0 0.08 1.88 1.88 99 1007.7
20260509191505 10 0 0.0 0.0 0.18 1.83 1.83 99 1007.2
20260509184504 11 0 0.0 0.0 0.46 1.80 1.80 98 1007.2
20260509183005 11 0 0.0 0.0 0.53 1.80 1.80 98 1007.4
20260509181505 11 0 0.0 0.0 0.46 1.65 1.65 97 1007.8
20260509180005 11 0 0.0 0.0 0.46 1.42 1.42 97 1008.1
20260509174504 11 0 0.0 0.0 1.09 1.35 1.35 96 1008.1
20260509173004 11 0 0.0 0.0 1.24 1.27 1.27 95 1008.3
20260509171505 11 0 0.0 0.0 1.17 1.19 1.19 95 1008.4
20260509170005 12 0 0.0 0.0 0.97 0.97 0.97 94 1008.7
20260509164504 12 0 0.0 0.0 0.25 0.25 0.25 90 1008.6
20260509161505 12 0 0.0 0.0 0.03 0.03 0.03 85 1007.8
20260509160004 13 0 0.0 0.0 0.00 0.00 0.00 84 1007.3
20260509154505 13 0 0.0 0.0 0.00 0.00 0.00 82 1007.4
20260509153004 13 0 0.0 0.0 0.00 0.00 0.00 79 1007.4
20260509151504 14 1 0.0 6.4 0.00 0.00 0.00 75 1007.5
20260509150005 14 25 3.2 3.2 0.00 0.00 0.00 73 1008.3
20260509144504 15 51 0.0 3.2 0.00 0.00 0.00 72 1008.3
20260509143005 15 0 0.0 0.0 0.00 0.00 0.00 72 1008.6
20260509141504 15 53 1.6 3.2 0.00 0.00 0.00 71 1008.7
20260509140005 15 8 3.2 4.8 0.00 0.00 0.00 72 1008.5
20260509134505 15 340 3.2 4.8 0.00 0.00 0.00 75 1008.9
20260509133004 14 32 0.0 4.8 0.00 0.00 0.00 75 1008.7
20260509131504 15 1 3.2 6.4 0.00 0.00 0.00 73 1008.8
20260509130005 15 25 3.2 6.4 0.00 0.00 0.00 74 1008.9
20260509123004 16 68 1.6 3.2 0.00 0.00 0.00 71 1009.2
20260509121505 16 19 3.2 4.8 0.00 0.00 0.00 70 1009.5
20260509120004 16 45 0.0 6.4 0.00 0.00 0.00 70 1009.8
20260509113004 16 40 3.2 6.4 0.00 0.00 0.00 67 1009.7
20260509111504 17 38 0.0 9.7 0.00 0.00 0.00 64 1009.7
20260509110004 17 299 0.0 4.8 0.00 0.00 0.00 68 1009.8
20260509100004 16 0 0.0 0.0 0.00 0.00 0.00 70 1009.9
20260509094504 16 314 1.6 3.2 0.00 0.00 0.00 72 1009.7
20260509093004 16 331 0.0 3.2 0.00 0.00 0.00 71 1009.5
20260509091504 16 270 3.2 3.2 0.00 0.00 0.00 71 1009.7
20260509084503 15 341 1.6 3.2 0.00 0.00 0.00 75 1009.6
20260509083006 14 0 0.0 0.0 0.00 0.00 0.00 80 1009.8
20260509081506 13 0 0.0 0.0 0.00 0.00 0.00 82 1009.9
20260509080006 13 0 0.0 0.0 0.00 0.00 0.00 89 1010.1
20260509074506 13 0 0.0 0.0 0.00 0.00 0.00 97 1010.0
20260509073006 12 0 0.0 0.0 0.00 0.00 0.00 99 1010.1
20260509071506 12 0 0.0 0.0 0.00 0.00 0.00 99 1010.2
20260509070006 11 0 0.0 0.0 0.00 0.00 0.00 99 1010.4
20260509064506 10 0 0.0 0.0 0.00 0.00 0.00 99 1010.3